STARLINK-2053 (47663 NORAD) Tracking and Keplerian Element Data

This shows tracking and keplerian element data for the satellite.

Feedback or suggestion? Click here.




ElementValue
Catalog47663
NameSTARLINK-2053
Epoch Orbit177
Epoch Day101.91668981
Epoch Year2021
RAAN188.9262
Inclination53.0473
Eccentricity0.0001715
Argument of Perigee31.5284
Mean Anonmoly41.1992
Mean Motion15.73217667
Decay Rate-0.00026137
L11 47663U 21012AV 21101.91668981 -.00026137 00000-0 -18220-3 0 9992
L22 47663 53.0473 188.9262 0001715 31.5284 41.1992 15.73217667 1779

Live tracking and technical data element details for STARLINK-2053 (NORAD 47663). STARLINK-2053 can be tracked NOW for your location showing map with azimuth and elevation plus other details from your city location.

Track the satellite on the map from your city or location and see movement details for azimuth, elevation, latitude, longitude, range, height, and movement on the map or in text.







IsCatalogInMostPopularTable: catalog: 47663, numindb: 19
Update: records affected: 1



GetName: 47663 STARLINK-2053

Hit Count: updated at: Tue, 13 Apr 2021 05:34:46 GMT